TimeMDT,TemperatureF,Dew PointF,Humidity,Sea Level PressureIn,VisibilityMPH,Wind Direction,Wind SpeedMPH,Gust SpeedMPH,PrecipitationIn,Events,Conditions,WindDirDegrees,DateUTC
12:15 AM,50.0,22.3,34,29.88,10.0,Calm,Calm,-,N/A,,Clear,0,2012-10-20 06:15:00
12:35 AM,47.7,24.4,40,29.88,10.0,South,3.5,-,N/A,,Clear,190,2012-10-20 06:35:00
12:55 AM,45.7,24.3,43,29.88,10.0,SSW,5.8,-,N/A,,Clear,210,2012-10-20 06:55:00
1:15 AM,49.8,21.4,33,29.87,10.0,Calm,Calm,-,N/A,,Clear,0,2012-10-20 07:15:00
1:35 AM,52.2,20.5,29,29.86,10.0,South,6.9,-,N/A,,Clear,180,2012-10-20 07:35:00
1:55 AM,56.7,19.6,24,29.86,10.0,South,6.9,-,N/A,,Clear,190,2012-10-20 07:55:00
2:15 AM,52.0,21.6,30,29.86,10.0,Calm,Calm,-,N/A,,Clear,0,2012-10-20 08:15:00
2:35 AM,49.8,22.8,35,29.85,10.0,Calm,Calm,-,N/A,,Clear,0,2012-10-20 08:35:00
2:55 AM,47.1,24.4,41,29.85,10.0,WNW,3.5,-,N/A,,Clear,290,2012-10-20 08:55:00
3:15 AM,48.2,23.7,38,29.85,10.0,WNW,3.5,-,N/A,,Clear,300,2012-10-20 09:15:00
3:35 AM,52.7,21.9,30,29.84,10.0,Calm,Calm,-,N/A,,Clear,0,2012-10-20 09:35:00
3:55 AM,48.9,23.0,36,29.84,10.0,South,3.5,-,N/A,,Clear,170,2012-10-20 09:55:00
4:15 AM,46.9,25.0,42,29.84,10.0,Calm,Calm,-,N/A,,Clear,0,2012-10-20 10:15:00
4:35 AM,46.4,25.2,43,29.84,10.0,South,3.5,-,N/A,,Clear,180,2012-10-20 10:35:00
4:55 AM,46.9,25.0,42,29.83,10.0,South,3.5,-,N/A,,Clear,180,2012-10-20 10:55:00
5:15 AM,45.0,25.7,47,29.83,10.0,SE,3.5,-,N/A,,Clear,140,2012-10-20 11:15:00
5:35 AM,47.7,24.8,41,29.83,10.0,Calm,Calm,-,N/A,,Clear,0,2012-10-20 11:35:00
5:55 AM,44.2,27.9,53,29.83,10.0,SSW,4.6,-,N/A,,Clear,210,2012-10-20 11:55:00
6:15 AM,44.1,27.0,51,29.83,10.0,Calm,Calm,-,N/A,,Clear,0,2012-10-20 12:15:00
6:35 AM,45.3,26.1,47,29.84,10.0,SSW,3.5,-,N/A,,Clear,210,2012-10-20 12:35:00
6:55 AM,44.6,27.0,50,29.84,10.0,Calm,Calm,-,N/A,,Clear,0,2012-10-20 12:55:00
7:15 AM,43.5,27.5,53,29.84,10.0,Calm,Calm,-,N/A,,Clear,0,2012-10-20 13:15:00
7:35 AM,44.1,27.7,53,29.84,10.0,Calm,Calm,-,N/A,,Clear,0,2012-10-20 13:35:00
7:55 AM,46.2,28.4,50,29.85,10.0,Calm,Calm,-,N/A,,Clear,0,2012-10-20 13:55:00
8:15 AM,49.5,28.4,44,29.87,10.0,Calm,Calm,-,N/A,,Clear,0,2012-10-20 14:15:00
8:35 AM,51.1,28.0,41,29.87,10.0,Calm,Calm,-,N/A,,Clear,0,2012-10-20 14:35:00
8:55 AM,52.0,29.5,42,29.88,10.0,Calm,Calm,-,N/A,,Clear,0,2012-10-20 14:55:00
9:15 AM,54.7,30.4,40,29.88,10.0,SW,4.6,-,N/A,,Clear,220,2012-10-20 15:15:00
9:35 AM,57.2,29.1,34,29.87,10.0,SE,3.5,-,N/A,,Clear,130,2012-10-20 15:35:00
9:55 AM,60.6,27.7,29,29.88,10.0,Calm,Calm,-,N/A,,Clear,0,2012-10-20 15:55:00
10:15 AM,64.9,26.4,23,29.87,10.0,WSW,6.9,-,N/A,,Clear,250,2012-10-20 16:15:00
10:35 AM,67.1,19.0,16,29.86,10.0,WSW,3.5,-,N/A,,Clear,240,2012-10-20 16:35:00
10:55 AM,68.4,17.1,14,29.85,10.0,SSW,4.6,-,N/A,,Clear,200,2012-10-20 16:55:00
11:15 AM,69.3,17.8,14,29.83,10.0,SW,9.2,-,N/A,,Clear,230,2012-10-20 17:15:00
11:35 AM,70.7,16.0,12,29.82,10.0,West,8.1,-,N/A,,Clear,270,2012-10-20 17:35:00
11:55 AM,70.9,16.2,12,29.81,10.0,West,9.2,16.1,N/A,,Clear,260,2012-10-20 17:55:00
12:15 PM,72.0,16.3,12,29.80,10.0,SW,8.1,-,N/A,,Clear,220,2012-10-20 18:15:00
12:35 PM,73.0,15.1,11,29.78,10.0,WSW,6.9,-,N/A,,Clear,240,2012-10-20 18:35:00
12:55 PM,71.6,17.1,13,29.77,10.0,South,9.2,17.3,N/A,,Clear,190,2012-10-20 18:55:00
1:15 PM,71.6,15.8,12,29.75,10.0,SSE,10.4,-,N/A,,Clear,160,2012-10-20 19:15:00
1:35 PM,72.5,15.1,11,29.74,10.0,Calm,Calm,-,N/A,,Clear,0,2012-10-20 19:35:00
1:55 PM,72.9,15.8,11,29.73,10.0,SSE,3.5,-,N/A,,Clear,160,2012-10-20 19:55:00
2:15 PM,72.7,15.6,11,29.74,10.0,South,3.5,-,N/A,,Clear,170,2012-10-20 20:15:00
2:35 PM,72.5,15.6,11,29.73,10.0,Calm,Calm,-,N/A,,Clear,0,2012-10-20 20:35:00
2:55 PM,72.9,16.7,12,29.73,10.0,SSE,3.5,-,N/A,,Clear,150,2012-10-20 20:55:00
3:15 PM,74.3,16.7,11,29.72,10.0,Calm,Calm,-,N/A,,Clear,0,2012-10-20 21:15:00
3:35 PM,75.6,18.1,12,29.72,10.0,East,5.8,-,N/A,,Clear,80,2012-10-20 21:35:00
3:55 PM,75.7,19.8,12,29.71,10.0,East,5.8,-,N/A,,Clear,100,2012-10-20 21:55:00
4:15 PM,74.3,18.7,12,29.71,10.0,ESE,4.6,-,N/A,,Clear,120,2012-10-20 22:15:00
4:35 PM,75.2,20.1,13,29.71,10.0,East,5.8,9.2,N/A,,Clear,100,2012-10-20 22:35:00
4:55 PM,74.5,20.7,13,29.70,10.0,ESE,4.6,-,N/A,,Clear,120,2012-10-20 22:55:00
5:15 PM,71.6,21.4,15,29.70,10.0,NE,6.9,-,N/A,,Clear,40,2012-10-20 23:15:00
5:35 PM,70.0,22.1,16,29.70,10.0,NNW,3.5,-,N/A,,Clear,340,2012-10-20 23:35:00
5:55 PM,66.2,24.4,21,29.70,10.0,East,3.5,-,N/A,,Clear,80,2012-10-20 23:55:00
6:15 PM,61.9,25.5,25,29.71,10.0,Calm,Calm,-,N/A,,Clear,0,2012-10-21 00:15:00
6:35 PM,56.7,27.3,33,29.71,10.0,Calm,Calm,-,N/A,,Clear,0,2012-10-21 00:35:00
6:55 PM,55.9,26.8,33,29.72,10.0,Calm,Calm,-,N/A,,Clear,0,2012-10-21 00:55:00
7:15 PM,53.4,27.5,37,29.72,10.0,SSW,5.8,-,N/A,,Clear,210,2012-10-21 01:15:00
7:35 PM,53.6,26.8,36,29.72,10.0,Calm,Calm,-,N/A,,Clear,0,2012-10-21 01:35:00
7:55 PM,52.9,27.7,38,29.72,10.0,Calm,Calm,-,N/A,,Clear,0,2012-10-21 01:55:00
8:15 PM,50.2,29.1,44,29.72,10.0,Calm,Calm,-,N/A,,Clear,0,2012-10-21 02:15:00
8:35 PM,48.4,29.7,48,29.72,10.0,SSW,3.5,-,N/A,,Clear,200,2012-10-21 02:35:00
8:55 PM,49.8,28.2,43,29.73,10.0,Calm,Calm,-,N/A,,Clear,0,2012-10-21 02:55:00
9:15 PM,46.2,29.1,51,29.73,10.0,Calm,Calm,-,N/A,,Clear,0,2012-10-21 03:15:00
9:35 PM,47.3,29.1,49,29.73,10.0,Calm,Calm,-,N/A,,Clear,0,2012-10-21 03:35:00
9:55 PM,45.9,30.0,54,29.73,10.0,SSW,4.6,-,N/A,,Clear,210,2012-10-21 03:55:00
10:15 PM,59.4,19.9,22,29.73,10.0,West,12.7,-,N/A,,Clear,270,2012-10-21 04:15:00
10:35 PM,66.0,16.0,15,29.73,10.0,West,12.7,-,N/A,,Clear,270,2012-10-21 04:35:00
10:55 PM,67.5,14.9,13,29.73,10.0,West,13.8,-,N/A,,Clear,260,2012-10-21 04:55:00
11:15 PM,68.0,14.4,13,29.73,10.0,WSW,13.8,-,N/A,,Clear,250,2012-10-21 05:15:00
11:35 PM,57.6,19.9,23,29.74,10.0,SSW,9.2,-,N/A,,Clear,210,2012-10-21 05:35:00
11:55 PM,55.8,20.5,25,29.74,10.0,Calm,Calm,-,N/A,,Clear,0,2012-10-21 05:55:00